This is the latest recevied weather packets stored in our database for station/object VK5GR-12. If no packets are shown the sender has not sent any weather packets the latest 10 day(s).
| Time | Temp. | Humidity | Pressure | Rain* | Wind** | Luminosity | Snow |
|---|---|---|---|---|---|---|---|
| 1778098935 | 8.89° C | 84% | 1028.1 hPa | 0 mm | - | 0 W/m² | - |
| 1778098031 | 8.89° C | 82% | 1028 hPa | 0 mm | - | 0 W/m² | - |
| 1778097127 | 9.44° C | 80% | 1028 hPa | 0 mm | - | 0 W/m² | - |
| 1778096224 | 10° C | 79% | 1027.7 hPa | 0 mm | - | 0 W/m² | - |
| 1778095320 | 10° C | 78% | 1027.7 hPa | 0 mm | - | 0 W/m² | - |
| 1778094416 | 10° C | 76% | 1027.4 hPa | 0 mm | - | 0 W/m² | - |
| 1778093512 | 10.56° C | 74% | 1027.2 hPa | 0 mm | - | 0 W/m² | - |
| 1778092609 | 11.11° C | 72% | 1027 hPa | 0 mm | - | 0 W/m² | - |
| 1778091705 | 11.11° C | 71% | 1027.1 hPa | 0 mm | - | 0 W/m² | - |
| 1778090803 | 11.11° C | 70% | 1027 hPa | 0 mm | - | 0 W/m² | - |
| 1778089898 | 11.11° C | 70% | 1027 hPa | 0 mm | - | 0 W/m² | - |
| 1778088997 | 11.11° C | 70% | 1027 hPa | 0 mm | - | 0 W/m² | - |
| 1778088093 | 10.56° C | 70% | 1027.2 hPa | 0 mm | - | 0 W/m² | - |
| 1778087191 | 10.56° C | 72% | 1027.1 hPa | 0 mm | - | 0 W/m² | - |
| 1778086288 | 10.56° C | 72% | 1027.1 hPa | 0 mm | - | 0 W/m² | - |
| 1778085383 | 10° C | 72% | 1027.2 hPa | 0 mm | - | 0 W/m² | - |
| 1778084483 | 10.56° C | 70% | 1027.2 hPa | 0 mm | - | 0 W/m² | - |
| 1778083580 | 11.11° C | 68% | 1026.9 hPa | 0 mm | - | 0 W/m² | - |
| 1778082676 | 11.67° C | 65% | 1026.9 hPa | 0 mm | - | 0 W/m² | - |
| 1778081096 | 11.67° C | 64% | 1027 hPa | 0 mm | - | 0 W/m² | - |
| 1778080195 | 11.67° C | 64% | 1026.8 hPa | 0 mm | - | 0 W/m² | - |
| 1778079290 | 11.67° C | 63% | 1026.7 hPa | 0 mm | - | 0 W/m² | - |
| 1778078388 | 12.22° C | 64% | 1026.8 hPa | 0 mm | - | 0 W/m² | - |
| 1778077486 | 12.22° C | 66% | 1026.8 hPa | 0 mm | - | 0 W/m² | - |
| 1778076586 | 12.22° C | 65% | 1026.7 hPa | 0 mm | - | 0 W/m² | - |
* Rain latest hour (hover to see other rain measurements)
** Current wind speed in m/s (hover to see current wind gust speed)